Location: Poughquag
(41.6090°N, 73.6820°W)
Time: 09:17:12
(UTC-04:00)

Transit 2A - All Passes

Search period start: 14 October 2019 00:00
Search period end: 24 October 2019 00:00
Orbit: 600 x 959 km, 66.7° (Epoch: 13 October)

Date Brightness Start Highest point End Pass type
(mag) Time Alt. Az. Time Alt. Az. Time Alt. Az.
14 Oct - 04:59:19 10° NNE 05:01:23 13° NE 05:03:25 10° ENE visible
14 Oct - 06:40:47 10° NNW 06:45:10 84° WSW 06:49:31 10° SSE daylight
14 Oct - 19:42:06 10° ESE 19:42:48 10° ESE 19:43:30 10° E night (unlit)
14 Oct - 21:19:43 10° SSW 21:25:21 81° ESE 21:30:26 10° NNE visible
14 Oct - 23:05:31 10° W 23:09:00 17° NW 23:12:19 10° N night (unlit)
15 Oct - 06:06:42 10° NNW 06:11:03 62° ENE 06:15:20 10° SE visible
15 Oct - 07:51:56 10° W 07:53:34 12° WSW 07:55:12 10° SW daylight
15 Oct - 20:45:47 10° SSW 20:51:15 55° ESE 20:56:14 10° NE visible
15 Oct - 22:30:23 10° W 22:34:40 23° NW 22:38:40 10° N night (unlit)
16 Oct - 05:32:43 10° NNW 05:36:52 40° NE 05:40:58 10° SE visible
16 Oct - 07:16:36 10° WNW 07:19:40 19° WSW 07:22:44 10° SSW daylight
16 Oct - 20:12:05 10° S 20:17:12 37° ESE 20:21:54 10° NE visible
16 Oct - 21:55:32 10° WSW 22:00:24 32° NW 22:04:52 10° NNE visible
17 Oct - 04:58:51 10° N 05:02:38 27° NE 05:06:21 10° ESE visible
17 Oct - 06:41:56 10° NW 06:45:43 30° WSW 06:49:30 10° S visible
17 Oct - 19:38:41 10° SSE 19:43:12 26° ESE 19:47:24 10° NE visible
17 Oct - 21:20:56 10° SW 21:26:11 45° NW 21:30:58 10° NNE visible
18 Oct - 04:25:08 10° N 04:28:20 19° NE 04:31:29 10° E visible
18 Oct - 06:07:32 10° NW 06:11:43 47° WSW 06:15:53 10° S visible
18 Oct - 19:05:43 10° SSE 19:09:14 17° ESE 19:12:35 10° ENE visible
18 Oct - 20:46:31 10° SW 20:52:01 65° WNW 20:56:59 10° NNE visible
18 Oct - 22:34:10 10° WNW 22:36:01 12° NW 22:37:49 10° NNW visible
19 Oct - 03:51:40 10° N 03:53:57 14° NE 03:56:14 10° ENE visible
19 Oct - 05:33:18 10° NNW 05:37:40 76° WSW 05:42:00 10° SSE visible
19 Oct - 18:33:47 10° ESE 18:35:19 11° ESE 18:36:48 10° E visible
19 Oct - 20:12:19 10° SSW 20:17:53 87° ESE 20:22:55 10° NNE visible
19 Oct - 21:58:25 10° W 22:01:36 16° NW 22:04:39 10° N visible
20 Oct - 04:59:12 10° NNW 05:03:34 69° ENE 05:07:53 10° SE visible
20 Oct - 06:45:02 10° W 06:46:02 11° WSW 06:47:03 10° WSW visible
20 Oct - 19:38:21 10° SSW 19:43:48 59° ESE 19:48:45 10° NE visible
20 Oct - 21:23:12 10° W 21:27:16 22° NW 21:31:03 10° N visible
21 Oct - 04:25:12 10° NNW 04:29:24 44° NE 04:33:33 10° SE visible
21 Oct - 06:09:17 10° WNW 06:12:08 17° WSW 06:15:01 10° SSW visible
21 Oct - 19:04:35 10° S 19:09:45 40° ESE 19:14:27 10° NE visible
21 Oct - 20:48:18 10° WSW 20:52:58 30° NW 20:57:17 10° N visible
22 Oct - 03:51:19 10° N 03:55:10 29° NE 03:58:59 10° ESE visible
22 Oct - 05:34:32 10° NW 05:38:12 27° WSW 05:41:53 10° S visible
22 Oct - 18:31:08 10° SSE 18:35:43 27° ESE 18:39:59 10° NE visible
22 Oct - 20:13:38 10° SW 20:18:45 41° NW 20:23:25 10° NNE visible
23 Oct - 03:17:34 10° N 03:20:53 21° NE 03:24:10 10° E night (unlit)
23 Oct - 05:00:05 10° NW 05:04:12 42° WSW 05:08:20 10° S visible
23 Oct - 17:58:03 10° SSE 18:01:44 19° ESE 18:05:14 10° ENE daylight
23 Oct - 19:39:11 10° SW 19:44:34 60° WNW 19:49:27 10° NNE visible
23 Oct - 21:27:26 10° NW 21:28:38 11° NW 21:29:48 10° NNW visible
